Location: Bijele Vode
(45.2833°N, 16.2000°E)
Time: 14:11:58
(UTC+00:00)

SPOT 1/Viking Rocket - Pass Details

Date: 18 September 2020
Orbit: 777 x 794 km, 98.5° (Epoch: 29 October)

Event Time Altitude Azimuth Distance (km) Brightness Sun altitude
Exits shadow 19:33:45 37° 38° (NE) 1,206 4.4 -26.4°
Drops below altitude 10° 19:37:32 10° 359° (N) 2,351 6.4 -27.0°
Sets 19:39:57 0° 353° (N) 3,281 7.3 -27.3°
